User: anonymous   Login
Location: Unspecified
(0.0000°N, 0.0000°E)
Time: 08:18:54
(UTC+00:00)
Language:

SR - Orbit

View from above orbital plane
View from above orbital plane
View from above satellite
View from above satellite

Ground track
Ground track

The orbit data is extracted from the following two-line orbital elements,

1 00046U 60007B   23275.79137179  .00001377  00000-0  28329-3 0  9991
2 00046  66.6911  35.5297 0211098 312.7816  45.5703 14.50870524313390
Epoch (UTC): 02 October 2023 18:59:34
Eccentricity: 0.0211098
inclination: 66.6911°
perigee height: 573 km
apogee height: 873 km
right ascension of ascending node: 35.5297°
argument of perigee: 312.7816°
revolutions per day: 14.50870524
mean anomaly at epoch: 45.5703°
orbit number at epoch: 31339

The dashed part of the orbit path shows where the satellite is in the earth's shadow,  

DLR